Theta_e
345 348 343 350 351 352 353 349 352 345 348 340 343 343 342 342 344 345 349 353 352 349 352 352 352 352 353 353 352 352 351 352 352 351 350 350 350 350 351 350 349 349 348
342 347 342 349 351 352 352 348 350 348 348 346 344 343 343 346 348 347 350 353 353 352 353 353 354 354 352 351 351 351 351 349 351 351 351 350 351 351 351 350 349 349 349
342 344 343 341 345 350 350 347 346 348 349 347 344 344 350 349 350 350 354 349 353 353 350 352 353 352 351 350 350 350 351 351 352 346 347 349 350 350 350 350 350 350 349
341 341 341 337 340 347 343 347 349 352 352 345 346 349 351 350 351 353 352 353 352 352 353 353 351 350 339 344 349 345 346 351 349 350 348 348 348 350 348 349 350 349 348
342 341 340 337 339 341 341 344 347 348 348 352 351 350 352 353 353 352 353 352 351 350 352 353 353 345 344 341 343 344 344 344 346 346 347 344 347 349 350 350 349 349 348
344 342 347 340 339 340 342 343 351 352 347 348 350 352 353 353 353 353 353 353 349 348 350 350 345 339 336 340 343 345 344 335 344 346 347 339 340 349 350 350 348 349 348
346 345 350 341 337 336 339 346 352 352 352 350 350 352 352 352 352 351 347 350 352 349 347 346 344 348 337 333 338 337 342 344 344 347 348 336 344 349 351 350 349 348 345
345 350 348 344 338 336 339 351 352 353 353 352 353 352 352 351 351 351 352 351 350 352 349 344 342 344 343 338 337 338 343 347 344 344 348 337 338 346 350 349 347 347 348
344 343 348 347 348 344 343 351 352 354 353 352 353 353 353 354 352 350 350 348 349 351 351 349 344 340 340 338 337 338 341 344 346 344 345 337 330 338 347 349 348 347 348
348 345 346 346 351 348 347 352 353 354 353 353 353 353 351 351 351 348 341 347 348 345 347 351 351 344 339 337 338 337 340 339 342 343 343 337 331 332 340 336 344 346 346
350 348 347 348 349 346 347 352 354 354 353 353 353 352 350 349 344 351 339 340 339 346 348 346 348 344 342 342 344 339 341 340 340 338 341 341 336 335 340 328 331 337 340
352 350 348 349 347 345 349 351 352 351 351 349 349 348 348 349 345 340 343 341 339 344 350 348 344 346 348 346 344 349 346 340 341 337 339 344 340 338 343 342 335 328 334
349 348 346 344 344 342 341 341 344 348 349 348 347 347 347 348 345 346 341 340 338 340 346 346 346 348 345 345 342 341 344 340 340 341 343 345 345 342 346 342 337 331 329
351 349 346 343 343 342 344 346 338 341 343 345 342 345 346 347 343 345 343 345 341 340 341 345 341 345 343 342 342 344 346 345 344 342 344 344 343 343 343 342 340 337 335
351 351 349 346 346 345 347 348 347 344 344 345 345 346 348 347 346 346 345 346 346 345 344 344 344 340 345 346 345 346 345 346 345 345 345 345 343 343 344 344 341 341 340
351 351 350 350 349 348 348 348 349 348 346 347 348 348 348 348 347 346 347 347 348 347 347 347 343 345 344 347 346 346 346 346 345 345 345 344 344 343 343 342 342 342 343
349 350 350 350 349 347 348 348 350 351 348 348 350 349 348 348 349 348 348 348 348 347 348 348 347 346 346 347 347 346 347 346 347 345 345 345 345 344 344 343 343 342 340
349 349 349 348 347 347 350 355 352 350 350 349 349 348 348 349 350 350 349 348 348 347 347 348 347 348 347 346 348 346 347 347 347 346 346 345 345 345 345 344 344 343 340
349 350 350 349 347 349 349 349 351 354 351 351 350 350 348 350 350 350 350 348 348 344 347 347 346 347 348 348 346 347 347 349 348 345 345 345 345 346 346 346 346 345 339
350 350 351 352 349 348 349 351 350 352 352 351 350 352 350 351 350 351 349 349 350 346 345 348 345 347 348 349 349 347 347 347 348 348 346 345 345 346 347 346 346 346 343
348 348 344 352 353 351 352 353 351 351 351 353 353 353 351 350 350 352 350 350 349 350 350 350 350 349 348 347 350 346 346 347 348 349 347 347 347 346 347 347 347 348 347
346 342 337 342 353 353 354 354 353 351 353 353 353 353 351 351 351 352 350 350 350 351 351 351 351 350 349 350 349 347 344 345 347 348 349 349 348 348 348 347 347 347 348
339 346 340 348 354 355 355 355 355 355 354 353 353 353 353 352 351 351 351 349 349 352 350 350 353 351 349 350 351 348 343 345 343 346 345 347 348 348 347 348 348 348 348
339 344 341 348 345 356 355 355 355 355 354 354 353 352 353 353 353 352 351 351 351 351 351 352 352 350 350 349 347 350 349 345 343 342 347 347 349 349 349 348 348 348 347
342 343 343 348 349 356 356 356 355 354 356 356 354 353 353 352 353 352 352 352 352 352 351 352 352 352 350 350 350 349 349 350 348 343 345 345 346 346 345 345 348 347 348
348 350 347 350 351 358 356 356 357 358 357 356 355 354 353 352 350 347 349 347 350 352 352 351 350 351 351 350 350 351 348 350 349 347 344 345 344 346 344 343 345 348 347
Wind_Speed
32 29 25 22 21 20 19 20 19 20 20 22 24 25 25 23 20 19 18 18 19 19 19 18 19 18 18 19 19 20 20 20 20 19 18 18 17 17 17 16 16 17 17
37 33 28 25 22 21 20 22 19 20 18 19 22 23 22 20 19 19 18 17 17 17 18 17 19 19 18 17 18 18 19 20 18 19 17 17 17 17 16 15 16 17 16
38 34 30 28 24 21 19 20 19 20 19 19 20 20 18 17 17 17 16 15 15 14 15 16 16 17 16 16 17 17 18 17 15 16 18 19 17 15 16 16 16 16 16
38 35 32 30 26 23 21 19 18 17 18 18 18 17 16 15 15 15 14 14 13 13 13 13 14 14 14 15 16 17 18 15 15 14 15 16 14 14 15 14 15 15 16
37 34 32 30 28 23 19 18 17 17 17 17 15 14 14 14 14 13 14 13 13 12 12 12 12 13 13 14 15 13 12 11 10 9 11 14 14 14 14 15 15 14 15
35 32 30 30 27 23 18 17 17 17 16 16 15 14 13 13 13 12 12 12 12 11 11 11 9 10 11 12 12 10 9 8 11 14 12 13 15 14 13 15 11 13 14
33 31 29 28 26 23 19 18 18 18 16 15 14 13 12 12 12 11 10 9 9 10 10 11 10 9 9 10 10 9 7 7 3 10 13 12 14 11 12 12 12 12 13
34 31 29 26 25 23 21 19 19 18 17 15 13 13 12 11 10 10 8 7 8 8 9 10 10 10 9 9 8 9 7 5 4 12 15 12 12 12 12 11 12 13 12
33 33 30 27 24 23 22 21 19 18 17 15 14 12 12 11 10 9 7 7 7 9 10 9 10 11 10 9 8 8 10 8 5 8 13 13 11 10 12 12 11 12 12
35 34 33 30 26 25 23 20 19 17 17 16 15 14 13 12 12 10 9 9 10 10 12 12 11 12 12 11 10 10 10 11 9 7 13 13 11 11 11 11 12 11 11
30 33 33 32 29 26 23 21 20 18 18 17 17 16 14 14 13 14 11 8 13 10 12 14 14 14 14 14 13 12 12 13 14 12 9 12 13 11 12 12 13 12 11
28 32 33 32 29 26 24 22 22 21 21 19 18 16 15 14 14 13 15 14 11 14 11 13 14 14 15 17 15 14 14 13 15 15 14 10 15 16 14 13 14 13 12
36 33 34 31 29 26 24 24 23 24 23 21 19 18 17 17 16 17 8 10 12 14 12 13 13 15 15 16 15 15 13 13 15 16 16 15 14 20 17 14 15 14 14
32 34 34 33 31 28 25 23 24 24 23 23 21 19 19 17 16 15 18 10 10 10 12 14 13 14 14 15 13 14 15 17 15 16 16 17 18 19 19 17 18 17 16
30 33 34 33 31 29 28 25 25 23 22 21 20 19 20 18 17 15 11 11 13 13 7 14 17 15 15 15 14 16 19 19 17 16 15 18 21 20 22 20 22 22 20
33 33 34 34 31 30 31 29 28 24 21 20 20 21 22 22 13 16 13 13 15 15 13 12 14 14 16 16 19 20 19 19 18 18 19 19 19 19 20 19 22 24 23
35 38 39 36 32 30 30 24 23 25 24 22 19 18 23 23 18 15 15 19 17 15 14 15 15 16 15 16 20 21 20 21 21 19 19 21 21 18 18 20 21 24 25
33 35 38 36 34 31 28 26 19 20 25 25 19 19 20 23 22 18 19 20 16 16 16 16 15 17 17 16 19 21 20 21 22 21 23 25 24 25 22 21 23 23 24
17 24 30 36 39 36 31 27 22 21 23 20 17 19 20 22 21 21 21 17 18 18 18 17 16 16 16 17 19 21 21 21 22 21 22 26 25 24 23 25 21 21 24
22 18 28 27 36 34 33 27 22 23 22 22 20 21 23 23 23 21 19 18 19 19 21 15 19 16 16 16 15 19 21 20 21 22 24 28 28 25 22 22 22 23 22
22 22 24 26 33 34 32 28 24 26 22 22 26 25 27 25 27 25 22 21 20 21 20 17 15 16 15 15 14 13 17 20 20 22 23 28 29 29 27 24 21 23 22
31 28 22 28 29 35 36 34 28 28 25 24 23 26 30 30 29 31 27 25 24 23 21 19 18 17 17 16 8 5 2 6 19 25 23 23 23 28 26 27 26 27 26
28 33 22 36 23 33 35 31 24 24 24 22 27 27 30 34 34 32 30 25 26 24 23 21 20 22 18 14 20 5 1 4 2 8 22 24 23 27 27 25 27 27 28
37 36 28 28 21 27 31 28 29 23 24 26 27 29 30 32 35 33 31 25 26 24 23 25 21 22 21 19 14 25 22 7 3 3 6 17 24 26 27 23 22 24 27
25 28 37 35 21 25 25 21 20 16 19 22 25 26 26 24 26 29 31 25 26 25 25 19 20 24 22 20 20 10 15 23 16 3 3 4 10 24 33 29 24 23 24
27 24 27 23 25 20 17 12 14 14 13 18 25 26 29 29 29 26 23 25 27 26 25 25 23 23 23 22 24 21 18 8 9 8 4 6 7 11 12 21 24 24 25
Wind_Direction
162 158 159 149 140 132 125 118 109 107 106 110 112 117 116 110 106 104 101 102 107 103 101 104 105 105 104 104 107 109 109 110 106 106 110 113 116 113 115 115 114 114 111
159 158 160 151 144 135 129 120 118 116 115 117 119 117 112 108 105 102 100 101 107 108 110 109 110 110 110 111 112 111 112 112 111 113 116 117 122 118 118 119 120 117 118
158 159 159 154 148 139 130 124 124 126 125 126 125 121 116 112 109 106 103 103 105 109 114 113 114 114 115 112 110 116 119 117 107 109 115 119 122 125 125 127 126 123 124
159 160 161 159 154 145 134 129 128 126 124 129 129 126 122 118 114 114 111 110 113 111 118 119 120 113 118 118 120 123 125 127 113 114 113 115 119 125 125 128 126 129 130
160 163 163 164 163 158 147 139 138 133 133 132 134 134 131 127 124 124 122 117 118 121 122 124 123 121 120 121 124 127 128 138 167 143 132 131 131 133 134 131 134 132 131
161 165 165 169 169 171 167 157 148 143 143 141 141 139 137 132 129 129 125 129 128 133 133 138 140 135 135 135 137 134 125 110 118 155 151 144 139 140 142 130 135 135 131
161 165 166 170 171 174 174 167 158 152 152 150 149 146 143 141 140 138 134 136 139 146 148 149 148 148 142 150 151 150 129 124 127 157 165 154 149 137 140 143 143 137 138
160 162 165 169 171 171 169 167 166 163 160 159 158 159 160 163 158 150 150 151 155 162 163 170 172 175 177 158 159 156 152 165 136 157 172 170 165 160 154 157 152 149 151
162 162 165 168 169 171 171 170 173 171 170 169 169 174 174 175 176 174 175 179 191 186 186 192 192 190 193 188 181 187 180 196 189 174 178 182 178 170 171 166 163 165 161
163 167 169 170 172 176 178 176 179 181 183 181 182 186 191 191 195 197 207 200 199 211 202 201 203 206 208 220 234 227 218 215 220 225 202 200 188 179 183 184 186 187 180
161 171 174 174 178 180 180 181 185 189 192 194 196 201 200 203 209 214 211 241 225 209 224 218 215 224 227 239 242 243 239 222 227 223 219 210 206 205 194 194 197 195 194
167 174 178 177 178 180 183 184 193 193 197 203 208 211 214 214 223 226 250 246 231 215 210 225 225 233 238 240 241 238 242 233 231 224 224 225 223 215 207 205 207 201 201
177 177 183 181 181 184 189 196 202 203 203 207 215 221 222 223 229 222 267 274 226 223 215 230 227 232 239 241 240 234 234 232 242 232 224 219 219 210 211 216 221 216 210
175 182 185 187 189 193 191 196 202 208 210 214 216 218 220 227 233 243 259 260 234 227 228 229 230 236 240 241 239 237 245 247 250 231 227 231 236 228 223 228 230 228 227
179 182 186 186 189 193 195 200 207 211 209 208 213 217 222 229 239 235 252 248 237 221 229 234 234 240 239 240 246 254 255 240 241 226 235 236 237 238 226 233 231 233 231
186 186 187 188 189 194 200 208 213 214 212 211 221 227 228 229 258 239 249 243 240 233 240 250 230 236 239 242 241 250 246 235 239 237 241 240 231 231 234 233 230 237 235
188 190 189 193 191 200 204 203 209 219 215 214 215 225 224 230 243 235 245 241 237 237 239 240 235 233 244 235 239 237 244 239 241 238 241 241 233 231 228 231 234 240 236
181 176 188 191 187 199 196 189 197 198 213 210 234 219 233 230 233 235 237 239 236 232 237 232 234 236 243 242 241 239 241 247 246 249 243 239 240 232 231 234 238 240 238
180 168 181 185 189 192 201 205 211 196 201 217 221 228 228 226 228 231 232 236 231 234 226 234 239 236 238 241 244 243 242 248 244 244 240 234 241 236 239 238 239 244 237
183 192 190 191 196 202 205 212 217 211 219 228 235 233 223 223 222 223 227 232 235 233 236 251 236 242 242 243 249 253 249 252 256 248 244 236 242 242 240 244 239 241 241
189 210 219 202 215 208 207 204 209 210 215 224 236 237 233 229 222 223 231 228 224 230 241 244 244 244 249 245 253 265 254 252 252 249 241 240 242 246 242 243 247 244 246
198 211 230 214 221 212 211 208 208 212 219 230 238 237 238 233 228 224 230 228 227 227 237 239 243 243 242 240 221 225 288 256 245 239 236 236 245 242 246 246 248 251 248
208 209 220 216 217 213 213 210 211 220 229 236 239 240 241 237 236 231 228 232 226 231 235 236 244 237 235 236 225 186 129 233 304 235 233 234 238 236 242 245 250 252 252
208 212 219 211 219 216 213 209 215 227 237 240 240 241 250 249 248 242 237 236 230 230 238 241 240 231 238 242 236 236 249 262 197 319 251 237 234 236 237 238 244 246 250
211 215 219 222 229 224 211 216 238 262 265 267 267 260 257 256 250 249 249 239 238 235 231 233 225 230 233 241 230 230 243 248 248 203 263 281 250 257 247 240 242 241 238
208 223 219 218 224 220 218 239 260 270 300 300 289 286 272 250 233 259 262 253 241 244 236 235 237 239 236 240 240 240 239 228 229 217 233 257 254 282 253 242 245 247 237